Regional Weather Roundup
Issued by NWS

Home | Current Version | Previous Version | Graphics & Text | Print | Product List | Glossary On
Versions: 1 2 3 4 5 6 7 8 9 10 11 12 13 14 15 16 17 18 19 20 21 22 23 24 25 26 27 28 29 30 31 32 33 34 35 36 37 38 39 40 41 42 43 44 45 46 47 48 49 50
000
ASUS43 KDMX 021907
RWRIA

WEATHER ROUNDUP FOR IOWA
NATIONAL WEATHER SERVICE DES MOINES IA
200 PM CDT TUE JUN 02 2015

NOTE: "FAIR" INDICATES FEW OR NO CLOUDS BELOW 12,000 FEET WITH NO
SIGNIFICANT WEATHER AND/OR OBSTRUCTIONS TO VISIBILITY.

* - THESE STATIONS ARE NOT NWS STATIONS...THUS NOT UNDER NWS
QUALITY CONTROL.  THEY ALSO DO NOT REPORT WEATHER SUCH
AS PRECIPITATION OR FOG.

IAZ001>003-012>014-020>022-031>034-043>046-022000-
   NORTHWEST IOWA

CITY           SKY/WX    TMP DP  RH WIND       PRES   REMARKS
CARROLL *      SUNNY     70  55  60 S14G25    30.02S
CHEROKEE *     PTSUNNY   73  59  60 S16       29.97F
DENISON *      CLOUDY    72  57  60 S14       29.97F
LE MARS *      CLOUDY    73  59  60 S20       29.94F
ORANGE CITY *  PTSUNNY   73  57  56 S16       29.94F
SHELDON *      PTSUNNY   75  55  50 S20G26    29.94F
SIOUX CITY     PTSUNNY   74  57  55 S17G26    29.94F
SPENCER        MOSUNNY   74  56  53 S18G25    29.98F
STORM LAKE *   MOSUNNY   73  54  49 S18G28    30.00F
$$

IAZ055>058-069>071-079>083-090>094-022000-
   SOUTHWEST IOWA

CITY           SKY/WX    TMP DP  RH WIND       PRES   REMARKS
ATLANTIC *     SUNNY     72  55  56 S13       30.00F
AUDUBON *      SUNNY     72  57  60 SE10G17   30.01F
CLARINDA *     SUNNY     73  57  56 SE10G17   30.02S
COUNCIL BLFS * PTSUNNY   73  61  64 S15G23    29.98F
CRESTON *      PTSUNNY   66  55  68 SE15G22   30.04F
HARLAN  *      MOSUNNY   73  59  60 S14G21    30.02F
LAMONI         CLOUDY    68  56  65 SE9       30.05F
RED OAK *      MOSUNNY   72  57  60 SE10G21   30.00F
SHENANDOAH *   CLOUDY    73  59  60 SE13      30.00S
$$

IAZ047>049-059>061-072>074-084-022000-
   CENTRAL IOWA

CITY           SKY/WX    TMP DP  RH WIND       PRES   REMARKS
AMES           PTSUNNY   68  55  63 S17G25    30.04F
ANKENY *       CLOUDY    68  57  68 S10G17    30.05S
CHARITON *     CLOUDY    66  57  72 SE12G18   30.06F
DES MOINES     CLOUDY    69  55  60 S16       30.04F
GRINNELL*      CLOUDY    70  55  60 SE16G22   30.06F
KNOXVILLE *    CLOUDY    68  54  60 SE15G21   30.05F
MARSHALLTOWN   PTSUNNY   70  55  59 SE15G23   30.04F
PELLA *        CLOUDY    70  59  68 S10G18    30.07F
PERRY *        CLOUDY    68  54  60 S17       30.04F
$$

IAZ004>006-015-016-023>025-035-036-022000-
   NORTH CENTRAL IOWA

CITY           SKY/WX    TMP DP  RH WIND       PRES   REMARKS
ALGONA *       MOSUNNY   72  55  56 S16G25    30.02F
CLARION *      SUNNY     73  52  46 S22G31    30.03F
ESTHERVILLE    SUNNY     70  54  56 S21G28    30.00F
FORT DODGE *   PTSUNNY   70  55  60 S12G18    30.04S
MASON CITY     MOSUNNY   73  54  51 S18       30.05F
FOREST CITY *  SUNNY     70  54  56 S14G24    30.03F
IOWA FALLS *   PTSUNNY   72  54  53 S14G24    30.06R
$$

IAZ007>011-017>019-026>030-037>042-050>054-066-022000-
   NORTHEAST IOWA

CITY           SKY/WX    TMP DP  RH WIND       PRES   REMARKS
CEDAR RAPIDS   MOSUNNY   70  51  51 VRB6G17   30.08F
CHARLES CITY * PTSUNNY   70  55  60 SE14G23   30.06F
CLINTON *      SUNNY     70  48  46 S6        30.12F
DECORAH *      MOSUNNY   72  50  46 S8        30.07F
DUBUQUE        SUNNY     69  51  52 S10       30.10F
MONTICELLO *   SUNNY     72  50  46 SE12      30.09S
OELWEIN *      MOSUNNY   72  50  46 SE14      30.08F
WATERLOO       PTSUNNY   70  54  56 S12G22    30.05F
$$

IAZ064-065-067-068-078-022000-
   EAST CENTRAL IOWA

CITY           SKY/WX    TMP DP  RH WIND       PRES   REMARKS
DAVENPORT      SUNNY     71  48  43 SE9       30.10F
IOWA CITY      MOSUNNY   71  52  50 SE10      30.09F
MT. PLEASANT * PTSUNNY   72  52  49 S13       30.09F
MUSCATINE *    MOSUNNY   73  52  46 SE12      30.09F
QUAD CITIES    SUNNY     72  49  44 SE10G16   30.08F
$$

IAZ062-063-075>077-085>089-095>099-022000-
   SOUTHEAST IOWA

CITY           SKY/WX    TMP DP  RH WIND       PRES   REMARKS
BURLINGTON     CLOUDY    69  54  58 SE8       30.09F
FAIRFIELD *    CLOUDY    68  54  60 S9G16     30.08F
FORT MADISON *   N/A     68  57  68 SE8       30.10F
KEOKUK *       CLOUDY    68  55  64 SE6       30.09F
OSKALOOSA *    CLOUDY    70  54  56 SE14      30.08S
CENTERVILLE *  SUNNY     66  66 100 SE13      30.08F
OTTUMWA        CLOUDY    67  55  65 SE13      30.07F
WASHINGTON *   MOSUNNY   73  52  46 S14G20    30.09F
$$

ABBREVIATIONS USED IN REMARKS
   TC - TEMPERATURES IN CELSIUS
  WCI - WIND CHILL INDEX
   HX - HEAT INDEX
  VSB - VISIBILITY
$$




USA.gov is the U.S. government's official web portal to all federal, state and local government web resources and services.